Theta_e
316 323 327 322 325 317 323 324 322 326 326 322 325 327 331 333 337 337 337 338 335 331 330 330 336 336 336 334 333 334 333 334 333 333 331 331 329 327 327 327 327 327 327 327 327 327 328 327 325
317 322 323 318 325 320 321 317 326 324 325 326 325 327 331 336 339 337 338 338 333 324 329 327 336 333 334 330 330 330 331 333 333 332 331 330 329 330 330 330 329 328 326 326 327 327 325 324 324
319 323 322 322 317 323 318 319 323 323 326 323 329 326 329 333 337 337 339 338 330 321 325 325 335 331 332 327 327 327 326 330 333 332 330 330 328 328 328 330 329 329 327 326 326 324 321 321 323
319 322 318 323 327 321 317 320 321 321 319 323 327 332 329 333 337 338 339 338 326 319 323 327 335 332 329 327 326 326 328 329 331 331 331 330 329 328 326 327 329 329 328 326 325 319 318 319 321
321 319 327 325 324 321 315 320 319 321 319 322 325 331 335 336 338 339 338 335 323 321 323 329 334 335 333 329 329 328 325 329 329 330 330 329 329 328 325 327 324 325 327 326 321 316 314 314 317
320 319 328 330 325 321 320 320 319 319 318 325 328 333 334 336 339 339 338 333 323 321 325 333 335 335 334 332 331 326 327 326 324 325 326 326 327 327 326 325 325 326 323 326 322 320 318 316 315
321 323 327 327 326 323 322 316 318 317 321 323 325 331 330 335 338 338 337 331 325 323 324 330 333 334 334 334 330 327 329 329 329 326 325 325 324 323 325 324 324 325 326 326 325 322 321 321 320
319 322 327 325 324 322 319 317 317 317 319 321 324 325 329 333 338 337 335 331 327 324 323 326 331 334 334 334 331 328 330 329 329 327 326 326 325 324 323 322 322 323 323 322 323 323 322 320 321
317 323 327 326 323 323 317 323 320 321 322 326 326 324 324 336 337 336 335 333 331 327 323 322 325 330 333 333 331 329 330 330 329 329 328 327 326 325 324 323 323 323 323 323 323 323 322 322 322
316 318 323 322 323 326 320 322 322 326 328 329 331 328 332 336 335 333 333 333 333 331 327 324 321 321 327 328 328 328 330 331 330 330 330 329 327 325 324 324 323 323 324 324 323 323 323 323 323
316 316 317 323 324 324 323 322 321 324 328 324 328 329 332 334 334 333 333 333 332 332 332 331 326 322 320 321 324 325 326 327 327 329 330 330 329 327 325 324 324 324 324 325 324 325 324 324 324
318 316 316 321 322 322 320 320 323 323 324 322 324 329 334 334 334 333 333 334 334 333 334 334 332 327 325 322 321 321 323 324 324 324 328 329 328 327 326 325 324 325 324 324 325 325 325 324 323
315 316 317 320 320 321 321 322 322 322 321 323 327 332 334 334 334 334 334 335 335 334 335 335 334 332 330 328 326 324 323 322 322 323 323 324 324 324 324 323 323 322 324 324 325 325 325 325 324
314 317 317 319 318 319 323 323 322 322 325 328 330 330 331 332 334 334 334 335 335 335 335 335 335 335 334 333 332 330 329 327 326 325 324 323 323 323 322 322 323 323 324 325 326 326 325 325 325
317 319 317 318 318 318 316 317 324 319 325 328 330 329 329 329 332 333 334 334 335 335 336 336 336 335 335 334 333 332 331 331 331 330 330 329 328 327 327 327 327 327 327 327 327 326 326 326 326
317 315 318 316 317 317 312 314 311 312 319 326 326 326 328 328 330 332 333 334 335 335 335 336 336 336 336 335 334 333 332 332 332 332 331 331 330 330 330 330 330 330 329 329 328 329 328 328 328
315 318 318 318 316 318 313 312 311 313 313 317 320 322 323 324 325 330 332 332 332 333 333 334 335 335 336 336 335 334 333 332 332 333 333 332 331 331 331 331 331 330 330 330 329 329 329 329 328
319 318 316 318 316 318 317 315 313 314 315 315 312 311 310 312 314 319 321 327 329 330 329 329 330 332 334 334 334 333 333 332 332 333 332 332 332 332 331 331 331 331 330 330 328 329 329 329 330
314 314 314 313 315 318 317 316 315 313 313 311 311 310 310 310 310 312 313 314 319 325 328 329 330 331 331 331 331 331 331 331 331 332 332 332 332 331 331 331 331 331 331 330 327 329 329 330 330
315 312 312 316 315 315 312 313 311 311 311 311 310 309 308 309 311 311 311 310 310 311 313 318 325 327 328 330 331 332 332 332 331 332 332 331 331 331 331 330 330 330 330 330 330 329 328 329 330
314 312 312 313 313 310 308 308 307 307 307 307 306 305 305 305 306 308 310 310 309 309 311 312 312 314 319 327 329 330 331 331 331 331 331 331 330 330 330 330 331 331 331 330 330 329 329 329 328
316 313 312 314 311 313 306 305 305 304 303 303 303 302 303 303 303 304 306 307 308 309 310 311 311 313 313 314 318 328 329 329 330 331 331 331 330 329 328 328 330 331 330 327 326 328 329 328 327
314 311 312 311 310 311 310 308 305 302 304 303 302 305 303 299 302 302 305 307 309 309 310 310 311 311 312 313 314 316 321 325 327 328 328 327 327 327 327 328 329 330 329 326 327 327 328 327 324
311 312 312 310 309 311 310 309 306 304 304 305 308 306 305 304 303 304 307 308 309 308 309 309 310 311 311 311 312 312 314 315 316 318 320 321 325 326 326 325 327 328 327 327 324 326 325 324 323
312 314 318 319 318 316 303 307 307 305 301 303 303 307 305 305 304 305 307 307 307 307 307 307 308 309 310 312 313 312 313 313 314 317 319 321 323 324 324 325 327 327 325 323 321 321 320 320 320
311 313 316 318 309 306 305 307 305 303 304 305 304 306 305 305 304 306 307 307 307 306 306 306 306 306 308 310 312 312 314 314 314 315 319 322 322 322 323 323 323 322 320 318 318 318 317 315 312
312 312 307 308 302 308 305 305 304 305 305 306 306 306 306 305 305 306 307 306 306 306 305 305 305 305 305 306 307 310 311 313 314 315 316 319 319 318 317 317 316 315 314 313 311 308 306 306 306
310 309 312 309 307 308 303 304 305 305 307 307 307 306 307 306 306 306 305 305 305 305 305 304 304 304 303 303 304 305 307 309 310 310 311 311 311 311 310 309 308 306 304 304 304 303 303 302 302
311 312 310 310 308 307 303 303 300 302 303 306 306 305 306 306 306 306 305 306 305 305 304 304 304 304 303 303 303 303 303 304 306 307 307 307 306 304 303 302 302 302 302 301 301 300 300 299 299
310 311 309 309 307 307 307 307 303 300 302 303 305 304 304 305 305 304 305 306 305 304 304 304 304 304 303 303 302 302 302 302 302 302 302 302 302 301 301 301 301 301 300 300 299 299 298 298 298
Wind_Speed
18 4 6 4 4 5 1 2 1 2 1 1 4 5 7 2 4 3 4 13 25 29 24 21 19 19 18 18 16 15 12 11 11 10 10 10 10 11 11 10 11 10 9 9 9 9 8 9 8
13 2 2 2 4 3 5 2 5 3 4 7 5 3 3 2 2 6 14 12 25 28 26 24 20 18 18 17 16 14 11 10 10 9 9 9 8 9 8 8 8 8 7 8 8 8 7 7 6
3 2 3 4 3 4 5 4 5 2 7 2 4 4 3 5 1 15 6 21 28 27 26 25 22 20 18 16 15 13 11 10 10 9 8 8 8 7 9 8 4 6 7 6 6 6 5 5 4
2 4 4 4 4 4 4 4 5 6 2 1 4 5 1 3 9 12 16 27 28 26 26 26 23 21 19 17 15 13 11 9 10 9 9 8 7 7 8 7 7 5 4 5 4 4 4 3 2
4 3 3 2 3 2 3 3 5 5 4 2 1 4 1 2 6 15 24 29 29 27 26 25 22 21 19 17 15 13 10 10 9 9 9 8 7 6 7 4 4 4 2 1 1 2 2 1 0
4 3 3 2 3 2 2 4 4 3 2 3 4 5 3 3 13 19 27 29 27 27 26 23 20 20 19 18 15 12 9 7 7 8 8 9 8 8 6 6 3 2 1 1 2 3 3 3 3
5 4 3 2 3 1 5 7 5 5 4 4 8 5 1 4 12 23 26 26 25 24 24 22 20 19 19 18 15 13 10 8 7 7 8 6 5 6 9 7 6 4 3 3 5 7 8 8 8
4 4 4 3 3 4 4 6 3 6 4 2 3 3 3 6 17 25 24 24 23 23 22 22 21 20 20 19 16 14 13 12 10 8 8 7 6 6 6 8 9 8 8 7 8 10 11 10 10
2 4 3 4 6 3 3 3 1 1 6 1 2 4 2 20 23 24 21 21 22 22 22 21 21 21 20 20 17 16 15 14 13 11 10 9 9 9 9 9 8 9 9 9 10 11 11 12 13
3 4 8 4 5 2 2 2 7 3 3 2 2 3 10 25 26 21 18 18 21 25 24 22 21 21 21 20 19 18 17 16 15 15 14 13 12 11 10 10 10 10 10 11 11 12 13 14 15
3 5 4 3 3 3 2 3 3 8 3 6 7 6 10 18 17 17 17 20 24 26 24 24 22 20 20 21 20 20 19 18 16 17 16 16 15 15 14 14 14 13 13 13 13 14 15 16 16
4 3 2 2 1 4 5 5 4 5 3 4 5 11 13 12 17 19 19 23 24 24 25 23 22 22 21 20 20 20 20 19 19 18 18 18 18 17 17 17 16 17 15 16 16 17 16 17 17
3 3 2 1 2 1 4 2 5 5 2 3 8 11 13 12 16 18 23 24 24 25 26 25 23 23 22 22 21 20 20 20 20 19 19 20 20 20 19 19 19 18 18 17 17 17 18 18 18
5 3 1 1 1 1 3 2 4 1 2 5 8 9 8 11 17 16 21 24 27 27 27 26 25 24 23 23 23 23 21 20 20 20 21 21 21 21 21 20 20 20 19 19 18 19 19 19 19
3 4 2 2 1 1 2 2 5 1 2 5 6 5 6 8 15 21 24 26 28 29 28 28 27 25 25 25 23 23 22 21 21 21 20 20 20 21 20 19 19 19 18 19 19 20 20 21 20
4 4 3 1 4 0 3 6 3 3 3 6 6 6 7 7 15 20 22 24 25 27 28 27 28 28 28 28 26 26 24 23 23 22 21 22 21 21 20 21 21 19 20 20 20 20 21 21 21
5 3 4 2 3 2 3 7 3 3 3 5 5 6 7 6 10 19 21 22 23 24 26 27 27 29 29 29 29 28 26 26 25 25 26 24 23 23 23 24 24 22 23 22 22 23 22 23 22
6 4 4 4 2 2 3 7 2 2 1 3 6 6 6 7 10 14 15 19 20 20 21 22 24 25 27 27 28 29 29 29 28 27 27 26 25 23 23 24 23 22 24 23 22 23 22 24 24
5 3 3 1 2 3 5 7 8 5 3 7 8 8 8 9 7 10 6 5 9 14 19 21 21 22 22 23 24 24 28 29 29 30 28 26 25 25 25 26 24 23 23 23 22 21 22 22 19
3 4 2 0 2 2 2 9 7 7 7 8 9 9 10 4 4 5 6 2 2 4 5 9 15 19 22 24 26 24 21 25 28 26 25 24 24 23 23 22 22 21 20 21 21 19 19 20 18
1 4 3 1 1 3 3 6 4 4 4 5 8 7 6 9 8 7 10 8 7 5 3 3 5 9 14 18 23 24 23 22 21 21 21 22 21 20 21 21 22 21 17 18 18 19 18 17 11
4 4 5 5 2 3 2 5 5 1 7 7 9 6 8 7 6 5 7 5 4 4 4 4 5 5 7 11 17 23 25 22 26 25 23 20 17 16 16 16 18 18 16 16 18 16 15 12 8
3 5 5 3 4 2 2 2 7 3 5 9 3 3 7 6 5 5 6 6 4 2 0 2 3 5 5 6 9 14 18 22 23 21 19 18 17 16 15 14 14 14 14 14 12 11 10 10 11
7 6 7 4 3 2 4 4 5 4 5 2 2 4 3 5 6 6 6 6 4 2 2 2 2 3 4 6 7 9 12 14 15 17 17 17 15 14 13 12 12 12 12 9 6 6 7 8 10
2 5 3 2 1 5 1 1 6 10 5 3 5 2 4 5 4 4 4 4 5 5 4 4 4 3 3 3 3 5 9 11 11 12 13 14 14 14 11 10 9 9 9 8 7 9 11 11 11
4 4 6 5 3 2 2 6 6 5 4 6 7 5 4 4 3 4 4 4 4 4 4 4 4 4 4 4 3 4 4 4 8 11 9 11 12 10 9 8 7 7 7 6 6 7 7 8 7
3 2 1 7 1 3 4 6 10 4 4 1 4 5 6 5 4 4 4 3 3 2 2 2 3 3 5 6 6 4 4 3 2 1 4 7 8 8 7 6 6 6 6 6 6 5 4 4 3
4 5 2 2 3 4 4 4 5 5 6 2 4 6 5 4 4 2 1 2 1 1 1 1 1 2 3 4 5 5 4 3 2 1 2 4 5 5 5 5 4 4 3 2 2 2 1 1 2
3 2 2 4 3 4 1 5 6 6 6 7 7 6 5 5 4 3 3 3 3 3 3 2 2 3 3 4 4 4 4 3 2 1 1 2 2 3 3 3 3 3 2 1 1 1 2 2 2
2 2 4 3 5 3 1 6 3 7 7 6 7 5 3 4 5 4 5 5 4 3 3 3 4 4 4 4 4 4 3 3 2 2 2 3 3 3 3 3 3 3 2 1 1 2 3 5 4
Wind_Direction
347 22 138 62 57 64 264 246 315 107 118 112 123 143 177 115 165 205 146 160 160 159 159 164 157 152 148 143 146 145 146 139 135 133 130 123 115 114 109 102 101 100 101 99 97 91 93 95 83
347 125 70 81 89 72 266 246 187 204 149 122 84 71 87 141 92 120 135 161 161 159 162 163 162 158 157 154 156 160 160 150 146 144 139 133 128 122 119 107 98 100 102 100 97 94 101 107 93
11 90 88 96 111 179 211 213 159 135 165 83 97 48 132 163 126 156 166 162 164 163 165 164 165 164 168 163 164 169 169 164 160 158 153 148 138 131 125 105 118 102 101 96 95 97 107 117 107
6 26 38 94 215 240 208 202 158 133 246 93 124 81 41 263 165 184 163 162 167 166 168 169 170 172 173 172 172 173 176 178 171 167 164 158 150 140 146 142 136 114 109 103 97 110 115 124 139
46 60 63 87 253 250 246 187 169 144 143 114 143 171 46 63 154 163 162 166 170 169 171 173 178 181 180 178 175 177 178 182 182 176 173 173 175 171 157 158 176 194 186 87 101 86 90 101 201
48 96 71 214 254 263 231 158 148 138 128 150 90 127 153 168 154 164 166 170 174 171 173 177 182 185 187 184 182 178 170 175 182 187 189 190 197 196 188 196 206 203 195 264 297 327 328 323 315
118 96 194 183 262 264 188 144 161 164 147 236 152 129 288 184 174 167 170 173 176 178 178 182 183 186 191 192 190 185 177 188 203 194 199 205 208 213 215 227 236 229 249 277 285 314 314 313 315
106 94 135 228 208 251 187 167 164 152 199 107 162 185 217 197 171 168 171 175 180 183 186 188 187 188 193 196 200 198 197 207 216 211 211 215 223 228 232 238 245 251 266 279 282 298 311 310 308
128 69 176 217 153 238 143 152 90 125 119 165 147 152 300 159 164 164 167 178 184 189 192 194 196 196 198 203 209 208 208 214 221 223 223 227 233 236 237 240 247 256 263 273 280 287 293 301 303
90 131 214 192 177 203 196 188 164 139 124 226 190 79 137 154 160 163 171 178 188 194 195 199 202 204 206 210 212 214 215 220 226 227 230 232 238 243 248 250 255 259 265 270 276 280 285 288 297
156 183 198 221 177 175 213 192 171 126 238 215 196 151 149 154 165 173 184 190 195 199 200 203 207 208 212 216 219 222 223 226 229 230 232 237 242 246 251 254 257 263 266 273 277 282 286 289 296
143 224 192 146 279 166 177 138 176 187 203 331 211 151 154 169 179 183 190 198 202 205 209 212 213 215 217 221 223 226 227 231 233 236 238 240 246 251 255 260 266 268 270 275 274 280 286 285 291
162 190 187 127 71 57 120 166 177 220 328 36 126 152 167 175 187 196 200 206 210 212 216 217 218 220 223 225 228 229 232 234 239 242 244 247 250 255 260 264 267 269 272 274 280 281 286 289 293
187 139 151 342 269 89 166 200 168 236 92 105 156 176 175 183 189 194 206 212 215 220 221 221 224 226 228 231 233 235 236 239 241 244 247 251 256 260 264 267 270 272 273 279 283 285 288 290 293
118 123 57 223 240 221 161 269 227 92 114 147 188 191 196 196 196 206 211 217 223 226 229 229 229 231 232 234 236 238 240 241 244 246 249 254 257 261 264 268 272 276 280 282 282 285 287 290 294
100 58 132 262 164 289 114 254 243 356 163 192 204 221 225 224 222 221 224 230 232 234 234 236 234 235 236 238 240 242 244 248 249 252 255 256 258 262 264 267 271 279 280 281 282 286 287 288 292
7 170 194 284 208 134 137 242 243 40 169 228 231 235 241 260 257 244 241 243 242 242 243 240 238 240 241 241 243 245 248 250 253 255 255 256 258 261 264 266 269 275 278 279 282 281 283 286 289
178 193 216 206 205 150 169 250 266 196 60 255 271 263 261 261 252 259 262 256 251 246 244 246 247 246 246 246 249 251 251 251 250 255 254 256 259 262 265 268 271 274 274 276 279 280 282 281 284
137 137 150 224 356 165 214 263 237 233 273 259 260 262 254 250 267 261 259 260 248 248 244 245 245 245 240 237 238 242 244 248 247 249 253 256 259 262 266 269 274 273 271 275 279 279 281 280 285
120 126 174 321 20 142 55 271 260 256 239 217 225 238 241 237 237 231 206 182 188 211 223 237 243 245 243 241 242 242 248 253 257 259 260 262 263 263 264 266 269 270 270 273 278 277 272 277 276
114 152 170 211 89 68 336 287 268 255 273 267 254 242 242 234 231 236 239 243 252 242 238 235 241 246 245 243 242 242 244 250 253 255 256 258 260 261 260 264 265 267 268 268 279 281 268 267 274
166 186 128 126 96 233 4 271 293 301 284 270 265 253 259 255 244 218 218 205 207 217 239 252 254 260 257 245 242 244 245 242 255 261 266 270 268 265 258 257 257 259 259 271 276 275 263 259 254
196 131 115 88 78 10 340 43 275 353 287 266 323 313 276 242 222 209 139 155 155 157 253 307 276 255 260 259 250 247 248 251 258 263 267 266 262 254 252 253 253 252 255 267 275 259 233 242 261
147 91 59 52 57 335 216 172 264 238 219 356 14 32 81 104 111 112 120 129 111 63 38 12 348 327 303 282 263 260 261 263 262 260 256 252 244 237 243 250 246 238 246 252 250 249 251 254 265
167 126 43 307 209 235 6 254 266 271 236 263 313 242 128 124 121 135 134 110 93 76 57 51 41 29 360 338 319 280 265 258 257 260 255 244 234 229 233 238 225 226 228 227 229 246 257 268 272
173 202 151 195 209 268 341 236 240 238 292 275 260 165 158 152 160 163 137 105 93 74 56 42 41 34 24 16 3 359 347 293 257 253 247 232 221 218 210 210 219 231 235 241 254 257 261 267 267
197 209 138 104 95 34 231 292 300 240 245 329 199 164 183 176 191 179 146 138 134 106 62 29 12 11 5 4 4 358 4 16 21 277 228 211 204 202 204 210 222 233 245 257 264 264 263 272 284
160 173 114 17 131 239 266 273 243 285 268 168 196 215 197 180 179 175 167 189 154 125 217 234 330 9 356 351 349 352 356 353 351 73 131 153 170 189 204 221 229 234 236 231 230 230 281 317 332
151 195 107 124 148 206 272 260 220 246 238 212 219 216 210 193 188 181 190 201 207 226 248 288 318 325 328 329 334 331 327 331 332 292 214 193 192 194 191 184 179 175 169 151 146 60 23 8 6
311 224 156 153 217 242 226 266 238 246 265 221 216 209 202 196 192 197 200 204 214 236 269 290 303 311 315 308 305 308 309 305 269 212 185 177 174 171 167 166 173 172 154 113 65 39 14 4 355